Location: Brusselsch Zeekanaal
(50.8667°N, 4.3667°E)
Time: 00:18:00
(UTC+00:00)

USA-17 - Pass Details

Date: 08 November 2025
Orbit: 399 x 1583 km, 63.3° (Epoch: 04 December)

Event Time Altitude Azimuth Distance (km) Brightness Sun altitude
Exits shadow 05:19:36 27° 301° (WNW) 822 5.2 -13.9°
Maximum altitude 05:21:06 60° 229° (SW) 475 4.3 -13.6°
Drops below altitude 10° 05:24:22 10° 149° (SSE) 1,554 7.7 -13.1°
Sets 05:26:37 0° 146° (SE) 2,523 8.9 -12.8°
